Regional Weather Roundup
Issued by NWS

Home | Current Version | Previous Version | Graphics & Text | Print | Product List | Glossary On
Versions: 1 2 3 4 5 6 7 8 9 10 11 12 13 14 15 16 17 18 19 20 21 22 23 24 25 26 27 28 29 30 31 32 33 34 35 36 37 38 39 40 41 42 43 44 45 46 47 48 49 50
000
ASUS45 KCYS 280410
RWRWY

WYOMING REGIONAL WEATHER ROUNDUP
NATIONAL WEATHER SERVICE CHEYENNE WY
1000 PM MDT TUE SEP 27 2016

NOTE:  "FAIR" INDICATES FEW OR NO CLOUDS BELOW 12,000 FEET
WITH NO SIGNIFICANT WEATHER AND/OR OBSTRUCTIONS TO VISIBILITY.

WYZ001-280500-
YELLOWSTONE NATIONAL PARK

CITY           SKY/WX    TMP DP  RH WIND       PRES   REMARKS
LK YELLOWSTONE   N/A     39  36  89 CALM      30.38R
W YELLOWSTONE  NOT AVBL

$$
WYZ002>013-054>058-071-098>099-280500-
NORTHERN WYOMING

CITY           SKY/WX    TMP DP  RH WIND       PRES   REMARKS
JACKSON        FAIR      52  39  62 NE6       30.28R
CODY           FAIR      55  44  66 S3        30.22R
GREYBULL       FAIR      61  50  67 E9        30.12R
WORLAND        FAIR      54  46  74 CALM      30.14R
SHERIDAN       FAIR      53  44  71 SW5       30.13R
BUFFALO        FAIR      59  41  51 W8        30.20R
GILLETTE       FAIR      48  45  89 W5        30.15R
HULETT         FAIR      55  43  62 S5        30.15S
NEWCASTLE      FAIR      57  39  51 N7        30.14R

$$
WYZ014>020-022>026-101>103-280500-
CENTRAL WYOMING

CITY           SKY/WX    TMP DP  RH WIND       PRES   REMARKS
BIG PINEY      FAIR      47  37  68 N9        30.31R
PINEDALE       FAIR      48  32  53 CALM      30.32R
DUBOIS         FAIR      50  32  50 W7        30.34R
LANDER         FAIR      60  38  43 SW9       30.22R
RIVERTON       FAIR      58  43  57 CALM      30.23R
CASPER         FAIR      51  41  68 NW9       30.21R
DOUGLAS        FAIR      55  36  48 CALM      30.20R

$$
WYZ021-027>030-104>119-280500-
SOUTHERN WYOMING

CITY           SKY/WX    TMP DP  RH WIND       PRES   REMARKS
EVANSTON       FAIR      61  39  44 N3        30.31R
FORT BRIDGER   FAIR      58  32  38 S6        30.32S
ROCK SPRINGS   FAIR      60  34  37 SE5       30.28S
DIXON          FAIR      50  36  59 NE6       30.32R
RAWLINS        FAIR      49  30  48 N8        30.29S
SARATOGA       FAIR      46  32  57 SE5       30.32R
LARAMIE        FAIR      46  31  55 W7        30.32R
CHEYENNE       FAIR      53  28  38 W3        30.25R
TORRINGTON     FAIR      59  38  45 W3        30.12R
PINE BLUFFS    FAIR      46  32  57 W8        30.19R

$$



USA.gov is the U.S. government's official web portal to all federal, state and local government web resources and services.